Regional Weather Roundup
Issued by NWS

Home | Current Version | Previous Version | Graphics & Text | Print | Product List | Glossary Off
Versions: 1 2 3 4 5 6 7 8 9 10 11 12 13 14 15 16 17 18 19 20 21 22 23 24 25 26 27 28 29 30 31 32 33 34 35 36 37 38 39 40 41 42 43 44 45 46 47 48 49 50

000
ASUS43 KDMX 020807
RWRIA

WEATHER ROUNDUP FOR IOWA
NATIONAL WEATHER SERVICE DES MOINES IA
300 AM CDT TUE JUN 02 2015

NOTE: "FAIR" INDICATES FEW OR NO CLOUDS BELOW 12,000 FEET WITH NO
SIGNIFICANT WEATHER AND/OR OBSTRUCTIONS TO VISIBILITY.

* - THESE STATIONS ARE NOT NWS STATIONS...THUS NOT UNDER NWS
QUALITY CONTROL.  THEY ALSO DO NOT REPORT WEATHER SUCH
AS PRECIPITATION OR FOG.

IAZ001>003-012>014-020>022-031>034-043>046-020900-
   NORTHWEST IOWA

CITY           SKY/WX    TMP DP  RH WIND       PRES   REMARKS
CARROLL *      MOCLDY    55  54  94 S9        30.09S
CHEROKEE *     MOCLDY    56  53  87 S7        30.06R
DENISON *      CLEAR     57  57 100 SE15G21   30.05F
LE MARS *      CLOUDY    59  52  77 SE9       30.03F
ORANGE CITY *  CLOUDY    57  48  72 SE7       30.03F
SHELDON *      MOCLDY    57  48  72 S14       30.02F
SIOUX CITY     CLOUDY    61  51  70 SE9       30.03S
SPENCER        MOCLDY    58  51  78 S14       30.06F
$$

IAZ055>058-069>071-079>083-090>094-020900-
   SOUTHWEST IOWA

CITY           SKY/WX    TMP DP  RH WIND       PRES   REMARKS
ATLANTIC *     CLEAR     57  55  94 S8        30.09F
AUDUBON *      CLEAR     55  52  88 S5        30.11S
CLARINDA *     CLOUDY    55  55 100 S5        30.11F
COUNCIL BLFS * MOCLDY    57  57 100 SE7G14    30.07F
CRESTON *      CLEAR     54  54 100 SE9       30.11F
HARLAN  *      MOCLDY    57  57 100 S9        30.11S
LAMONI         CLOUDY    60  53  77 S8        30.13S
RED OAK *        N/A     57  55  94 SE9       30.09S
SHENANDOAH *   MOCLDY    55  55 100 SE5       30.09F
$$

IAZ047>049-059>061-072>074-084-020900-
   CENTRAL IOWA

CITY           SKY/WX    TMP DP  RH WIND       PRES   REMARKS
AMES           CLEAR     53  51  93 S6        30.12S
ANKENY *       CLEAR     54  54 100 CALM      30.12S
DES MOINES     PTCLDY    56  52  86 S7        30.12F
GRINNELL*      CLEAR     55  52  88 SW5       30.14S
KNOXVILLE *    CLEAR     54  52  94 S3        30.12S
MARSHALLTOWN   CLEAR     54  51  90 S3        30.13R
PELLA *        CLEAR     52  52 100 CALM      30.14S FOG
PERRY *          N/A     55  52  88 S7        30.11S
$$

IAZ004>006-015-016-023>025-035-036-020900-
   NORTH CENTRAL IOWA

CITY           SKY/WX    TMP DP  RH WIND       PRES   REMARKS
ALGONA *       CLEAR     57  52  82 S9        30.10S
CLARION *      CLEAR     55  50  82 S8        30.11S
ESTHERVILLE    MOCLDY    56  48  74 S13       30.07F
FORT DODGE *   PTCLDY    55  50  82 S7        30.12R
MASON CITY     CLEAR     52  44  74 SE8       30.13F
FOREST CITY *    N/A     50  45  81 SE5       30.11S
IOWA FALLS *     N/A     54  50  87 E5        30.13S
$$

IAZ007>011-017>019-026>030-037>042-050>054-066-020900-
   NORTHEAST IOWA

CITY           SKY/WX    TMP DP  RH WIND       PRES   REMARKS
CEDAR RAPIDS   CLEAR     53  47  79 VRB3      30.14S
CHARLES CITY * CLEAR     54  43  66 SE8       30.14S
CLINTON *      CLEAR     48  43  81 E7        30.20S
DECORAH *      PTCLDY    52  39  62 SE6       30.15S
DUBUQUE        CLEAR     49  41  74 SE5       30.17F
MONTICELLO *   CLEAR     52  45  76 SE7       30.16S
OELWEIN *      PTCLDY    54  45  71 SE9       30.16R
WATERLOO       PTCLDY    53  43  68 SE6       30.14R
$$

IAZ064-065-067-068-078-020900-
   EAST CENTRAL IOWA

CITY           SKY/WX    TMP DP  RH WIND       PRES   REMARKS
DAVENPORT      CLEAR     52  46  80 E7        30.18R
IOWA CITY      CLEAR     56  51  84 CALM      30.16R
MT. PLEASANT * MOCLDY    54  54 100 E6        30.15R
MUSCATINE *      N/A     57  55  94 CALM      30.15S
QUAD CITIES    MOCLDY    51  47  86 E6        30.17R
$$

IAZ062-063-075>077-085>089-095>099-020900-
   SOUTHEAST IOWA

CITY           SKY/WX    TMP DP  RH WIND       PRES   REMARKS
BURLINGTON     CLEAR     56  54  93 SE5       30.15R
FAIRFIELD *    CLEAR     54  52  94 CALM      30.15R
FORT MADISON *   N/A     54  54 100 CALM      30.16R
KEOKUK *       CLEAR     54  54 100 CALM      30.14R
OSKALOOSA *      N/A     54  53  96 CALM      30.15R FOG
CENTERVILLE *    N/A     50  50 100 CALM      30.16R FOG
OTTUMWA        FOG       51  51 100 CALM      30.14R VSB 1/4
WASHINGTON *   PTCLDY    54  54 100 CALM      30.16R
$$

ABBREVIATIONS USED IN REMARKS
   TC - TEMPERATURES IN CELSIUS
  WCI - WIND CHILL INDEX
   HX - HEAT INDEX
  VSB - VISIBILITY
$$




USA.gov is the U.S. government's official web portal to all federal, state and local government web resources and services.